Regional Weather Roundup
Issued by NWS

Home | Current Version | Previous Version | Text Only | Print | Product List | Glossary On
Versions: 1 2 3 4 5 6 7 8 9 10 11 12 13 14 15 16 17 18 19 20 21 22 23 24 25 26 27 28 29 30 31 32 33 34 35 36 37 38 39 40 41 42 43 44 45 46 47 48 49 50
000
ASCA44 KEWX 060620
RWRMX

LATIN AMERICA AND CARIBBEAN REGIONAL WEATHER ROUNDUP
NATIONAL WEATHER SERVICE AUSTIN/SAN ANTONIO TX
1200 AM CST FRI MAR 06 2015

NOTE: "FAIR" INDICATED FEW OR NO CLOUDS BELOW 12,000 FEET WITH NO
SIGNIFICANT WEATHER AND/OR OBSTRUCTIONS TO VISIBILITY.

BAJA CALIFORNIA

CITY           SKY/WX    TMP DP  RH WIND       PRES   REMARKS
LA PAZ         CLEAR     63  52  67 CALM      30.01
TIJUANA        CLEAR     57  32  38 E5        30.18S

NORTHWESTERN MEXICO

CITY           SKY/WX    TMP DP  RH WIND       PRES   REMARKS
CULIACAN       PTCLDY    64  63  94 CALM      29.93
HERMOSILLO     CLEAR     73  37  27 N5        30.00

NORTHEASTERN MEXICO

CITY           SKY/WX    TMP DP  RH WIND       PRES   REMARKS
CHIHUAHUA        N/A    N/A N/A N/A E5        30.38S
MONTERREY      CLOUDY    45  30  57 NW8       30.52F WCI  40
REYNOSA        CLOUDY    48  25  40 N7        30.55  WCI  45
SALTILLO       CLOUDY    34  32  93 N9        30.47S FOG     WCI  26
CD. VICTORIA   CLOUDY    48  34  57 NW9       30.52  WCI  44

WESTERN MEXICO

CITY           SKY/WX    TMP DP  RH WIND       PRES   REMARKS
AGUASCALIENTES PTCLDY    54  43  66 N13       30.30
DEL BAJIO      MOCLDY    57  46  67 N14       30.35R
GUADALAJARA    MOCLDY    66  39  37 CALM      30.16
MAZATLAN       CLOUDY    61  55  82 W8        29.90F
P. VALLARTA    CLOUDY    73  66  78 CALM      29.89S
ZACATECAS      MOCLDY    57  45  62 SE12      30.30F

CENTRAL MEXICO

CITY           SKY/WX    TMP DP  RH WIND       PRES   REMARKS
MEXICO CITY    PTCLDY    55  45  67 NW7       30.39R
MORELIA        MOCLDY    59  48  67 NE5       30.24
PUEBLA         CLEAR     52  46  82 N9        30.38S
QUERETARO      MOCLDY    50  43  76 NE14      30.41S WCI  45
S. LUIS POTOSI CLOUDY    45  37  76 E18       30.38F WCI  37
TOLUCA         CLEAR     50  43  76 CALM      30.41R

SOUTHERN MEXICO

CITY           SKY/WX    TMP DP  RH WIND       PRES   REMARKS
ACAPULCO       CLEAR     79  73  83 NE6       29.92S
VERACRUZ       MOCLDY    61  52  72 N17G29    30.27R

YUCATAN PENINSULA

CITY           SKY/WX    TMP DP  RH WIND       PRES   REMARKS
CANCUN         PTCLDY    79  73  83 E6        30.10F
COZUMEL        CLEAR     68  68 100 CALM      30.09F
MERIDA         MOCLDY    77  72  83 E5        30.07S
TAPACHULA      PTCLDY    79  73  83 CALM      29.90S
TUX. GUTIERREZ PTCLDY    70  59  68 NW16G31   30.07R

CENTRAL AMERICA

CITY           SKY/WX    TMP DP  RH WIND       PRES   REMARKS
MANAGUA        MOCLDY    81  72  74 E9        29.89F

CARIBBEAN

CITY           SKY/WX    TMP DP  RH WIND       PRES   REMARKS
ARUBA          PTCLDY    79  72  78 E21       29.92F
CURACAO        MOCLDY    79  70  73 E18       29.94F
KINGSTON       PTCLDY    79  68  69 N6        30.03S
NASSAU         PTCLDY    75  73  94 E3        30.16F
SAN JUAN       PTCLDY    75  70  83 SE5       30.10F
SANTO DOMINGO  LGT RAIN  70  68  94 NE12      30.09F
ST. CROIX      MOCLDY    75  66  73 E10       30.08
ST. MAARTEN    MOCLDY    77  66  69 E15       30.06F

$$




USA.gov is the U.S. government's official web portal to all federal, state and local government web resources and services.